Location: Newark
(35.2672°N, 80.7344°W)
Time: 18:39:24
(UTC+00:00)

Tiros 1 - Pass Details

Date: 23 January 2020
Orbit: 631 x 664 km, 48.4° (Epoch: 26 February)

Event Time Altitude Azimuth Distance (km) Brightness Sun altitude
Rises 21:43:46 0° 302° (WNW) 2,963 10.9 9.6°
Reaches altitude 10° 21:46:54 10° 324° (NW) 2,059 9.8 9.1°
Maximum altitude 21:49:56 17° 3° (N) 1,671 9.0 8.5°
Drops below altitude 10° 21:52:59 10° 43° (NE) 2,071 9.2 8.0°
Sets 21:56:09 0° 64° (ENE) 2,987 9.9 7.4°
